Regional Weather Roundup
Issued by NWS

Home | Current Version | Previous Version | Graphics & Text | Print | Product List | Glossary On
Versions: 1 2 3 4 5 6 7 8 9 10 11 12 13 14 15 16 17 18 19 20 21 22 23 24 25 26 27 28 29 30 31 32 33 34 35 36 37 38 39 40 41 42 43 44 45 46 47 48 49 50
200
ASUS44 KMEG 110710
RWRTN
TENNESSEE HOURLY STATE WEATHER ROUNDUP
NATIONAL WEATHER SERVICE MEMPHIS TN
100 AM CST SUN DEC 11 2016

TNZ002-004-019-021-049-052-054-088>092-110800-
WEST TENNESSEE

CITY           SKY/WX    TMP DP  RH WIND       PRES   REMARKS
MEMPHIS INTL   MOCLDY    37  17  44 SE9       30.28F WCI  30
NWS MEMPHIS      N/A     35 N/A N/A MISG        N/A
JACKSON        PTCLDY    36  16  44 S5        30.31F WCI  32
DYERSBURG      CLOUDY    37  18  44 S7        30.28F WCI  32
UNION CITY     CLOUDY    37  19  48 S8        30.27F WCI  31
PARIS          CLOUDY    34  16  47 S6        30.29F WCI  29
HUNTINGDON     MOCLDY    36  18  48 S7        30.29S WCI  30
LEXINGTON      PTCLDY    30  14  51 VRB5      30.29F WCI  25
$$

TNZ008-025-027-028-033-062-065-066-110800-
NORTH MIDDLE TENNESSEE

CITY           SKY/WX    TMP DP  RH WIND       PRES   REMARKS
NASHVILLE      CLOUDY    28  17  63 E3        30.35F
PORTLAND       CLEAR     30  18  59 S7        30.31F WCI  23
CLARKSVILLE    CLOUDY    33  17  51 S6        30.31F WCI  28
SMYRNA         CLOUDY    24  20  84 SE3       30.37F
GALLATIN       CLEAR     23  18  80 CALM      30.38F
CROSSVILLE     CLOUDY    27  13  55 S3        30.34S
$$

TNZ061-075-076-078-094-096-097-110800-
SOUTH MIDDLE TENNESSEE

CITY           SKY/WX    TMP DP  RH WIND       PRES   REMARKS
FAYETTEVILLE   CLEAR     30  16  55 CALM      30.35S
TULLAHOMA      CLEAR     27  16  63 SE5       30.35F WCI  21
WINCHESTER     CLEAR     27  18  69 SE5       30.36F WCI  21
MCMINNVILLE    CLEAR     21  18  86 CALM        N/A
COLUMBIA       CLEAR     23  23 100 CALM      30.32F
SHELBYVILLE    CLEAR     27  19  74 E5        30.35F WCI  21
$$

TNZ017-018-042-046-047-110800-
NORTHEAST TENNESSEE

CITY           SKY/WX    TMP DP  RH WIND       PRES   REMARKS
TRI CITIES     CLOUDY    23  16  74 CALM      30.38R
ELIZABETHTON   CLOUDY    25  16  68 CALM      30.38R
$$

TNZ012-013-036-069-073-074-110800-
CENTRAL EAST TENNESSEE

CITY           SKY/WX    TMP DP  RH WIND       PRES   REMARKS
KNOXVILLE      CLOUDY    26  17  68 S3        30.39S
OAK RIDGE      CLOUDY    25  19  78 CALM      30.40F
DOWNTOWN KNOXV CLEAR     27  23  86 CALM      30.40F
GATLINBURG     CLEAR     19  16  86 CALM      30.38S
MORRISTOWN     CLEAR     27  16  63 CALM      30.35F
JACKSBORO      CLEAR     23  21  93 CALM      30.41S
$$

TNZ083-085-099-110800-
SOUTHEAST TENNESSEE

CITY           SKY/WX    TMP DP  RH WIND       PRES   REMARKS
CHATTANOOGA    CLEAR     27  20  75 CALM      30.40F
$$

SKY/WX REPORTED AS FAIR MEANS FEW OR NO CLOUDS BELOW
12 THOUSAND FEET.





USA.gov is the U.S. government's official web portal to all federal, state and local government web resources and services.